Terminal Aerodrome Forecast
Issued by NWS

Home | Current Version | Previous Version | Graphics & Text | Print | Product List | Glossary On
Versions: 1 2 3 4 5 6 7 8 9 10 11 12 13 14 15 16 17 18 19 20 21 22 23 24 25 26
000
FTUS43 KABR 181900 AAA
TAFATY
TAF AMD
KATY 181908Z 1819/1918 18017G23KT P6SM SCT029 BKN035
     FM190100 17023G31KT P6SM SCT250
     FM191100 18018G27KT 3SM BR OVC006=

USA.gov is the U.S. government's official web portal to all federal, state and local government web resources and services.